Location: Waco, TX
(31.5480°N, 97.1670°W)
Time: 12:41:52
(UTC-05:00)

ISS - Pass Details

Date: 04 May 2021
Orbit: 417 x 422 km, 51.6° (Epoch: 15 May)

Event Time Altitude Azimuth Distance (km) Brightness Sun altitude
Rises 01:46:38 0° 223° (SW) 2,346 - -42.1°
Reaches altitude 10° 01:48:43 10° 222° (SW) 1,487 - -42.1°
Maximum altitude 01:52:03 85° 135° (SE) 423 - -42.0°
Drops below altitude 10° 01:55:25 10° 46° (NE) 1,497 - -41.9°
Sets 01:57:31 0° 46° (NE) 2,365 - -41.8°
